Weather History for Pensacola, FL

Change the Weather History Date:

Wednesday, March 27, 2013

  Actual Average Record
Temperature  
Mean Temperature 49 °F 62 °F  
Max Temperature 61 °F 72 °F 87 °F (1910)
Min Temperature 36 °F 53 °F 28 °F (1955)
Degree Days  
Heating Degree Days 16 4  
Month to date heating degree days 238 162  
Since 1 July heating degree days 1119 1470  
Cooling Degree Days 0 1  
Month to date cooling degree days 10 26  
Year to date cooling degree days 50 40  
Moisture  
Dew Point 30 °F    
Average Humidity 47    
Maximum Humidity 71    
Minimum Humidity 22    
Precipitation  
Precipitation 0.00 in 0.18 in 4.98 in (1946)
Month to date precipitation 1.55 5.09  
Year to date precipitation 15.82 14.78  
Snow  
Snow 0.00 in 0.00 in - ()
Month to date snowfall 0.0 0.0  
Since 1 July snowfall 0.0 0.0  
Snow Depth 0.00 in    
Sea Level Pressure  
Sea Level Pressure 30.36 in    
Wind  
Wind Speed 7 mph (NNW)    
Max Wind Speed 15 mph    
Max Gust Speed 21 mph    
Visibility 10 miles    
Events      
T = Trace of Precipitation, MM = Missing Value Source: NWS Daily Summary

Daily Weather History Graph

Daily Weather History Graph

Search for Another Location

Airport:

Trip Planner

Search our weather history database for the weather conditions in past years. The results will help you decide how hot, cold, wet, or windy it might be!

Date:

Astronomy

Mar. 27, 2013 Rise Set
Actual Time 6:43 AM CDT 7:04 PM CDT
Civil Twilight 6:19 AM CDT 7:28 PM CDT
Nautical Twilight 5:51 AM CDT 7:57 PM CDT
Astronomical Twilight 5:22 AM CDT 8:25 PM CDT
Moon 7:42 PM CDT (3/27) 6:37 AM CDT (3/27)
Length of Visible Light 13h 09m
Length of Day
12h 21m
Full, 100% of the Moon is Illuminated
Mar 27
Full
Apr 2
Last Quarter
Apr 10
New
Apr 18
First Quarter
Apr 25
Full

Hourly Weather History & Observations

Time (CDT) Temp. Windchill Dew Point Humidity Pressure Visibility Wind Dir Wind Speed Gust Speed Precip Events Conditions
12:53 AM 42.1 °F 38.4 °F 27.0 °F 55% 30.37 in 10.0 mi North 5.8 mph - N/A   Clear
1:53 AM 42.1 °F 38.4 °F 27.0 °F 55% 30.37 in 10.0 mi NNE 5.8 mph - N/A   Clear
2:53 AM 41.0 °F 38.0 °F 26.1 °F 55% 30.36 in 10.0 mi NNE 4.6 mph - N/A   Clear
3:53 AM 39.9 °F 35.8 °F 27.0 °F 60% 30.36 in 10.0 mi NNE 5.8 mph - N/A   Clear
4:53 AM 37.9 °F 34.4 °F 28.0 °F 68% 30.36 in 10.0 mi North 4.6 mph - N/A   Clear
5:53 AM 36.0 °F 32.1 °F 27.0 °F 70% 30.38 in 10.0 mi North 4.6 mph - N/A   Clear
6:53 AM 36.0 °F 32.1 °F 27.0 °F 70% 30.41 in 10.0 mi North 4.6 mph - N/A   Clear
7:53 AM 41.0 °F 37.1 °F 28.0 °F 60% 30.42 in 10.0 mi Variable 5.8 mph - N/A   Clear
8:53 AM 45.0 °F 40.6 °F 25.0 °F 46% 30.43 in 10.0 mi NNE 8.1 mph - N/A   Clear
9:53 AM 48.0 °F - 24.1 °F 39% 30.44 in 10.0 mi North 10.4 mph - N/A   Clear
10:53 AM 48.9 °F - 24.1 °F 38% 30.44 in 10.0 mi North 8.1 mph - N/A   Clear
11:53 AM 52.0 °F - 25.0 °F 35% 30.43 in 10.0 mi Variable 5.8 mph - N/A   Clear
12:53 PM 55.9 °F - 26.1 °F 32% 30.39 in 10.0 mi NNE 8.1 mph - N/A   Clear
1:53 PM 57.0 °F - 23.0 °F 27% 30.36 in 10.0 mi Variable 4.6 mph - N/A   Clear
2:53 PM 60.1 °F - 21.9 °F 23% 30.33 in 10.0 mi NNW 11.5 mph - N/A   Clear
3:53 PM 57.9 °F - 32.0 °F 37% 30.31 in 10.0 mi South 10.4 mph - N/A   Clear
4:53 PM 57.0 °F - 35.1 °F 44% 30.30 in 10.0 mi South 10.4 mph 18.4 mph N/A   Clear
5:53 PM 55.9 °F - 35.1 °F 45% 30.29 in 10.0 mi SW 10.4 mph - N/A   Clear
6:53 PM 54.0 °F - 36.0 °F 51% 30.31 in 10.0 mi SW 6.9 mph - N/A   Clear
7:53 PM 52.0 °F - 37.9 °F 59% 30.31 in 10.0 mi WSW 5.8 mph - N/A   Clear
8:53 PM 51.1 °F - 37.9 °F 61% 30.31 in 10.0 mi West 6.9 mph - N/A   Clear
9:53 PM 50.0 °F - 37.0 °F 61% 30.32 in 10.0 mi West 6.9 mph - N/A   Clear
10:53 PM 48.0 °F - 37.0 °F 66% 30.32 in 10.0 mi Calm Calm - N/A   Clear
11:53 PM 46.0 °F 44.8 °F 37.0 °F 71% 30.32 in 10.0 mi NW 3.5 mph - N/A   Clear